CW7992 Leck/Flensburg DE current weather conditions

sailwx.info

Wind from 180

Air temperature 15.0° C
Dewpoint 12.3° C

Last reported at 2019-Aug-21 18:51 UTC.
Time now 2019-Aug-21 20:09 UTC

Location: N 54°52' E 008°55'.
View on Google Maps.

See reports from other nearby stations

  
Tides and Currents Weather Stations Pressure Air Temp Water Temp Dewpoint Dewpoint Depression Visibility Wind Speed Wind Dir Waves Ship Positions
date/time (UTC)wind fromknots sea level pressurealtimeterstation pressurevisibilityair tempwater tempwave heightnotes
2019-Aug-21 18:51 180 15.0
2019-Aug-21 18:41 180 0 gusting 3 15.6
2019-Aug-21 18:31 180 0 gusting 3 15.6
2019-Aug-21 18:11 182 0 gusting 4 16.1
2019-Aug-21 18:01 180 1 gusting 5 16.7
2019-Aug-21 17:51 186 1 gusting 6 16.7
2019-Aug-21 17:41 194 0 gusting 1 17.2
2019-Aug-21 17:31 187 17.2
2019-Aug-21 17:21 173 1 gusting 5 17.2
2019-Aug-21 17:01 211 1 gusting 6 17.8
2019-Aug-21 16:51 181 3 gusting 6 17.8
2019-Aug-21 16:41 185 0 gusting 5 18.3
2019-Aug-21 16:11 200 3 gusting 6 18.9
2019-Aug-21 15:21 234 2 gusting 6 19.4
2019-Aug-21 14:51 241 2 gusting 6 20.0
2019-Aug-21 14:41 195 1 gusting 9 20.6
2019-Aug-21 14:31 201 0 gusting 6 20.0
2019-Aug-21 14:21 242 2 gusting 10 20.6
2019-Aug-21 13:51 265 1 gusting 8 20.6
2019-Aug-21 13:21 256 1 gusting 5 20.6
2019-Aug-21 13:11 187 3 gusting 6 20.6
2019-Aug-21 12:41 159 6 gusting 11 20.6
2019-Aug-21 12:31 198 5 gusting 6 20.6
2019-Aug-21 11:41 271 1 gusting 6 20.6
2019-Aug-21 11:31 197 6 gusting 10 20.6
2019-Aug-21 11:11 219 0 gusting 5 20.6
2019-Aug-21 11:01 230 3 gusting 10 20.6
2019-Aug-21 10:51 198 20.0
2019-Aug-21 10:41 297 20.0
2019-Aug-21 10:31 182 5 gusting 10 20.0
2019-Aug-21 10:21 171 1 gusting 6 20.0
2019-Aug-21 10:01 311 0 gusting 6 19.4
2019-Aug-21 09:51 221 19.4
2019-Aug-21 09:11 218 0 gusting 3 18.9
2019-Aug-21 09:01 285 18.9
2019-Aug-21 08:51 196 18.9
2019-Aug-21 08:41 209 18.3
2019-Aug-21 08:31 185 0 gusting 5 17.8
2019-Aug-21 07:51 150 17.2
2019-Aug-21 07:31 295 16.7
2019-Aug-21 07:21 302 16.1
2019-Aug-21 07:01 302 15.6
2019-Aug-21 06:51 301 14.4
2019-Aug-21 06:21 182 13.3
2019-Aug-21 06:11 180 13.3
2019-Aug-21 05:51 180 13.3
2019-Aug-21 05:41 180 13.3
2019-Aug-21 05:21 180 12.2
2019-Aug-21 05:01 180 11.7
2019-Aug-21 04:51 180 11.7
2019-Aug-21 03:51 180 12.2
2019-Aug-21 03:41 180 12.2
2019-Aug-21 03:31 180 12.2
2019-Aug-21 02:01 211 12.2
2019-Aug-21 01:51 213 12.2
2019-Aug-21 01:31 208 11.7
2019-Aug-21 01:21 201 11.7
2019-Aug-21 01:11 201 12.2
2019-Aug-21 01:01 201 12.2
2019-Aug-21 00:21 182 11.7
2019-Aug-21 00:11 185 11.7
2019-Aug-21 00:01 184 11.7
2019-Aug-20 23:21 207 11.1
2019-Aug-20 23:01 207 11.7
2019-Aug-20 22:51 207 11.7
2019-Aug-20 22:21 207 11.7
2019-Aug-20 22:01 207 11.1
2019-Aug-20 21:41 207 11.1
2019-Aug-20 21:01 207 11.7
2019-Aug-20 20:31 207 12.2
2019-Aug-20 20:21 207 12.2
2019-Aug-20 19:51 207 13.3
2019-Aug-20 19:31 207 13.9
2019-Aug-20 19:21 207 14.4
2019-Aug-20 19:11 207 15.0
2019-Aug-20 19:01 207 15.6
2019-Aug-20 17:21 171 0 gusting 1 17.2
2019-Aug-20 17:11 171 1 gusting 1 17.8
2019-Aug-20 16:41 200 3 gusting 5 18.3
2019-Aug-20 16:21 213 2 gusting 6 18.9
2019-Aug-20 16:01 194 5 gusting 9 18.9
2019-Aug-20 15:41 238 4 gusting 8 19.4
2019-Aug-20 15:21 206 4 gusting 9 19.4
2019-Aug-20 15:11 265 2 gusting 11 19.4
2019-Aug-20 15:01 254 1 gusting 5 19.4
2019-Aug-20 14:41 182 5 gusting 11 20.0
2019-Aug-20 14:31 179 3 gusting 10 19.4
2019-Aug-20 14:21 214 3 gusting 9 20.0
2019-Aug-20 14:11 188 4 gusting 6 20.0
2019-Aug-20 14:01 245 2 gusting 6 19.4
2019-Aug-20 13:51 248 3 gusting 6 19.4
2019-Aug-20 13:41 211 2 gusting 8 19.4
2019-Aug-20 13:31 189 1 gusting 6 19.4
2019-Aug-20 13:01 195 3 gusting 6 20.0
2019-Aug-20 12:21 217 2 gusting 8 20.0
2019-Aug-20 12:01 134 4 gusting 9 20.0
2019-Aug-20 11:31 200 5 gusting 10 20.6
2019-Aug-20 11:11 246 2 gusting 10 20.0
2019-Aug-20 10:31 235 4 gusting 12 20.0
2019-Aug-20 10:21 201 7 gusting 11 20.0
2019-Aug-20 09:41 215 4 gusting 11 19.4
2019-Aug-20 09:31 231 3 gusting 6 19.4
2019-Aug-20 09:21 260 3 gusting 6 18.9
2019-Aug-20 09:11 139 6 gusting 9 18.9
2019-Aug-20 09:01 186 3 gusting 10 18.3
2019-Aug-20 08:41 192 3 gusting 8 17.8
2019-Aug-20 08:31 208 4 gusting 9 16.7
2019-Aug-20 08:01 198 5 gusting 9 15.6
2019-Aug-20 07:51 194 6 gusting 10 15.0
2019-Aug-20 07:31 188 14.4
2019-Aug-20 07:21 212 0 gusting 4 14.4
2019-Aug-20 06:51 240 13.9
2019-Aug-20 06:31 240 1 gusting 4 13.3
2019-Aug-20 06:21 214 13.3
2019-Aug-20 05:21 176 13.3
2019-Aug-20 05:01 176 13.3
2019-Aug-20 04:51 175 0 gusting 6 13.9
2019-Aug-20 04:41 177 3 gusting 6 13.9
2019-Aug-20 04:31 215 0 gusting 6 13.3
2019-Aug-20 04:11 188 13.3
2019-Aug-20 03:51 188 13.3
2019-Aug-20 03:31 186 13.3
2019-Aug-20 02:51 209 12.8
2019-Aug-20 02:41 207 12.8
2019-Aug-20 02:11 207 12.8
2019-Aug-20 02:01 207 12.8
2019-Aug-20 01:51 207 12.8
2019-Aug-20 01:31 207 12.8
2019-Aug-20 01:21 207 13.3
2019-Aug-20 01:01 207 13.3
2019-Aug-20 00:41 207 13.9
2019-Aug-20 00:21 194 0 gusting 1 13.9
2019-Aug-19 23:41 213 14.4
2019-Aug-19 23:11 186 1 gusting 4 13.9
2019-Aug-19 23:01 177 0 gusting 5 13.9
2019-Aug-19 22:51 150 1 gusting 5 13.3
2019-Aug-19 22:21 195 13.3
2019-Aug-19 22:11 195 13.9
2019-Aug-19 22:01 195 13.9
2019-Aug-19 21:51 195 14.4
2019-Aug-19 21:41 195 14.4
2019-Aug-19 21:21 195 0 gusting 4 14.4
2019-Aug-19 21:11 195 14.4
2019-Aug-19 21:01 192 0 gusting 4 14.4
2019-Aug-19 20:51 188 14.4
2019-Aug-19 20:31 167 14.4
2019-Aug-19 20:11 186 0 gusting 4 14.4